Home   Weather   Sarpsborg   Past weeks

Flag for Norway Past Weather in Sarpsborg, Norway — Yesterday and Last 2 Weeks

Now
61 °F

Partly sunny.


Feels Like: 61 °F
Forecast: 51 / 59 °F
Wind: 17 mph from Southwest

Location: Rygge

Current Time: Sep 29, 2016 at 8:46:22 AM

Latest Report: Sep 29, 2016 at 7:50 AM


Visibility: 6 mi

Pressure: 29.30 "Hg

Humidity: 94%

Dew Point: 59 °F

Location of SarpsborgLocation

Past Weather in Sarpsborg — Graph

°F

Sarpsborg Temperature Yesterday

Maximum temperature yesterday: 63 °F (at 12:50 PM)
Minimum temperature yesterday: 55 °F (at 7:20 AM)
Average temperature yesterday: 59 °F

High & Low Weather Summary for the Past Weeks

 TemperatureHumidityPressure
High75 °F (Sep 15, 3:50 PM)100% (Sep 14, 8:20 AM)30.27 "Hg (Sep 14, 8:20 AM)
Low39 °F (Sep 24, 5:50 AM)52% (Sep 17, 4:20 PM)29.33 "Hg (Sep 29, 7:20 AM)
Average58 °F85%30.09 "Hg
* Reported Sep 14 7:20 AM — Sep 29 7:20 AM, Sarpsborg, Weather by CustomWeather, © 2016

Note: Actual official high and low records may vary slightly from our data, if they occured in-between our weather recording intervals... More about our weather records

Advertising

Sarpsborg Weather History for the Previous 24 Hours

Scroll right to see more
 ConditionsComfort  
Time TempWeatherWind HumidityBarometerVisibility
7:20 AM
Thu, Sep 29
61 °FDrizzle. Partly sunny.17 mph100%29.33 "Hg4 mi
6:50 AM61 °FPassing clouds.17 mph94%29.36 "Hg4 mi
6:20 AM59 °FPassing clouds.13 mph94%29.36 "Hg5 mi
5:50 AM55 °FDrizzle. Fog.12 mph94%29.42 "Hg3 mi
5:20 AM54 °FDrizzle. Fog.10 mph94%29.47 "Hg2 mi
4:50 AM54 °FDrizzle. Fog.10 mph94%29.50 "Hg2 mi
4:20 AM54 °FDrizzle. Fog.8 mph94%29.53 "Hg3 mi
3:50 AM54 °FRain. Overcast.8 mph88%29.56 "Hg6 mi
3:20 AM54 °FLight rain. Overcast.9 mph82%29.59 "HgN/A
2:50 AM55 °FPartly cloudy.9 mph72%29.62 "HgN/A
2:20 AM55 °FPartly cloudy.8 mph67%29.62 "HgN/A
1:50 AM55 °FPassing clouds.7 mph67%29.65 "HgN/A
1:20 AM55 °FPassing clouds.9 mph67%29.65 "HgN/A
12:50 AM54 °FPassing clouds.7 mph72%29.65 "HgN/A
12:20 AM54 °FPassing clouds.7 mph72%29.65 "HgN/A
11:20 PM
Wed, Sep 28
57 °FClear.9 mph63%29.65 "Hg10 mi
10:50 PM55 °FClear.8 mph67%29.68 "Hg10 mi
10:20 PM55 °FClear.7 mph67%29.65 "Hg10 mi
9:50 PM57 °FClear.9 mph67%29.65 "Hg10 mi
9:20 PM57 °FClear.7 mph67%29.65 "Hg10 mi
8:50 PM57 °FPassing clouds.5 mph67%29.65 "HgN/A
7:50 PM59 °FClear.10 mph63%29.65 "Hg10 mi
7:20 PM59 °FPassing clouds.7 mph72%29.62 "HgN/A
6:50 PM61 °FSunny.8 mph68%29.62 "Hg10 mi
6:20 PM61 °FSunny.8 mph72%29.62 "Hg10 mi
5:50 PM61 °FSunny.13 mph72%29.59 "Hg10 mi
4:50 PM61 °FSunny.16 mph68%29.59 "Hg10 mi
4:20 PM63 °FSunny.17 mph68%29.59 "Hg10 mi
3:50 PM63 °FSunny.20 mph64%29.59 "Hg10 mi
3:20 PM63 °FSunny.17 mph64%29.59 "Hg10 mi
2:50 PM61 °FPassing clouds.14 mph68%29.59 "HgN/A
2:20 PM61 °FPassing clouds.16 mph63%29.59 "HgN/A
1:50 PM61 °FPassing clouds.16 mph63%29.59 "HgN/A
1:20 PM63 °FPassing clouds.12 mph64%29.59 "HgN/A
12:50 PM63 °FPassing clouds.9 mph59%29.59 "HgN/A
12:20 PM61 °FPassing clouds.13 mph63%29.59 "HgN/A
11:20 AM61 °FSunny.15 mph68%29.56 "Hg10 mi
10:50 AM57 °FPassing clouds.12 mph72%29.56 "HgN/A
10:20 AM57 °FPassing clouds.13 mph77%29.56 "HgN/A
9:50 AM57 °FPartly sunny.13 mph77%29.56 "HgN/A
9:20 AM57 °FPartly sunny.10 mph77%29.56 "HgN/A
8:50 AM57 °FPassing clouds.13 mph77%29.56 "HgN/A
8:20 AM57 °FSunny.15 mph77%29.56 "Hg10 mi
Weather by CustomWeather, © 2016

See weather overviewHow to use our weather pages